EW3923 Weather Reports


time (UTC)temp
F
wind
direction
speed
knots
gust
knots
rain 1hr
in
rain 24hr
in
rain mn
in
humidity
%
barometer
mb
20260505233915 63 0.0 0.9 0.00 0.00 0.00 68 1016.0
20260505232935 63 90 0.9 1.7 0.00 0.00 0.00 67 1016.1
20260505231916 63 0.0 0.9 0.00 0.00 0.00 67 1016.2
20260505230915 63 0.0 0.0 0.00 0.00 0.00 67 1016.1
20260505225919 62 338 0.9 1.7 0.00 0.00 0.00 68 1016.1
20260505224916 62 0.0 0.9 0.00 0.00 0.00 68 1016.2
20260505223915 62 338 0.9 1.7 0.00 0.00 0.00 68 1016.2
20260505222936 62 338 0.9 1.7 0.00 0.00 0.00 68 1016.3
20260505221935 62 23 1.7 3.5 0.00 0.00 0.00 68 1016.3
20260505220916 62 0.0 0.9 0.00 0.00 0.00 68 1016.5
20260505215915 62 23 1.7 2.6 0.00 0.00 0.00 69 1016.5
20260505214916 62 23 0.9 2.6 0.00 0.00 0.00 69 1016.6
20260505213915 62 23 0.9 1.7 0.00 0.00 0.00 68 1016.5
20260505212918 62 0 1.7 3.5 0.00 0.00 0.00 68 1016.7
20260505211915 63 0 2.6 4.3 0.00 0.00 0.00 66 1016.7
20260505210915 63 0 0.9 1.7 0.00 0.00 0.00 67 1016.6
20260505205915 63 0.0 0.9 0.00 0.00 0.00 68 1016.6
20260505204915 63 0.0 0.9 0.00 0.00 0.00 69 1016.5
20260505203915 62 0.0 1.7 0.00 0.00 0.00 70 1016.5
20260505202940 62 338 0.9 1.7 0.00 0.00 0.00 70 1016.5
20260505201915 62 338 0.9 1.7 0.00 0.00 0.00 70 1016.6
20260505200915 62 0.0 0.9 0.00 0.00 0.00 70 1016.8
20260505195940 62 0.0 0.0 0.00 0.00 0.00 70 1016.8
20260505194935 62 293 1.7 2.6 0.00 0.00 0.00 69 1016.8
20260505193915 62 293 0.9 1.7 0.00 0.00 0.00 69 1016.9
20260505192915 62 270 0.9 2.6 0.00 0.00 0.00 70 1016.9
20260505191915 62 0.0 0.9 0.00 0.00 0.00 71 1016.9
20260505190915 61 315 0.9 0.9 0.00 0.00 0.00 72 1016.7
20260505185955 61 270 1.7 2.6 0.00 0.00 0.00 73 1016.7
20260505184915 60 0.0 1.7 0.00 0.00 0.00 73 1016.8
20260505183915 60 0.0 0.9 0.00 0.00 0.00 73 1016.8
20260505182935 59 270 1.7 3.5 0.00 0.00 0.00 74 1016.7
20260505181935 59 270 1.7 2.6 0.00 0.00 0.00 73 1016.9
20260505180915 59 0.0 0.9 0.00 0.00 0.00 72 1016.7
20260505175915 59 270 0.9 2.6 0.00 0.00 0.00 72 1016.7
20260505174915 59 0.0 0.9 0.00 0.00 0.00 72 1016.6
20260505173915 59 0.0 0.9 0.00 0.00 0.00 72 1016.6
20260505172915 59 248 0.9 1.7 0.00 0.00 0.00 72 1016.4
20260505171915 58 248 0.9 1.7 0.00 0.00 0.00 72 1016.3
20260505170915 58 248 0.9 2.6 0.00 0.00 0.00 73 1016.2
20260505165915 58 0.0 0.9 0.00 0.00 0.00 73 1016.3
20260505164915 57 0.0 0.0 0.00 0.00 0.00 74 1016.2
20260505163915 57 0.0 0.0 0.00 0.00 0.00 74 1016.2
20260505162915 57 0.0 0.9 0.00 0.00 0.00 75 1016.2
20260505161935 56 0.0 0.9 0.00 0.00 0.00 76 1016.1
20260505160915 56 225 0.9 1.7 0.00 0.00 0.00 77 1016.1
20260505152917 55 0.0 0.9 0.00 0.00 0.00 80 1016.0
20260505151917 54 225 1.7 3.5 0.00 0.00 0.00 81 1015.9
20260505150917 54 0.0 0.9 0.00 0.00 0.00 81 1015.9
20260505125037 53 0.0 0.0 0.00 0.00 0.00 81 1015.2
20260505123916 53 0.0 0.0 0.00 0.00 0.00 81 1015.3
20260505122917 53 0.0 0.0 0.00 0.00 0.00 80 1015.3
20260505121917 53 0.0 0.0 0.00 0.00 0.00 80 1015.4
20260505120936 53 0.0 0.0 0.00 0.00 0.00 80 1015.4
20260505115916 53 0.0 0.0 0.00 0.00 0.00 79 1015.3
20260505114916 53 0.0 0.0 0.00 0.00 0.00 79 1015.4
20260505113916 53 0.0 0.0 0.00 0.00 0.00 79 1015.5
20260505112916 53 0.0 0.0 0.00 0.00 0.00 78 1015.4
20260505111917 53 0.0 0.0 0.00 0.00 0.00 78 1015.4
20260505110916 53 0.0 0.0 0.00 0.00 0.00 77 1015.4
20260505101916 54 0.0 0.0 0.00 0.00 0.00 75 1015.4
20260505100916 54 0.0 0.0 0.00 0.00 0.00 74 1015.5
20260505095936 54 0.0 0.0 0.00 0.00 0.00 74 1015.5
20260505094916 54 0.0 0.0 0.00 0.00 0.00 73 1015.6
20260505093916 54 0.0 1.7 0.00 0.00 0.00 73 1015.7
20260505092916 54 270 0.9 1.7 0.00 0.00 0.00 73 1015.8
20260505091916 54 270 0.9 2.6 0.00 0.00 0.00 72 1015.5
20260505090916 54 270 0.9 1.7 0.00 0.00 0.00 72 1015.7
20260505085916 54 0.0 0.9 0.00 0.00 0.00 71 1015.8
20260505084916 54 293 0.9 2.6 0.00 0.00 0.00 71 1015.9
20260505083916 54 315 1.7 2.6 0.00 0.00 0.00 71 1016.1
20260505082936 54 293 0.9 2.6 0.00 0.00 0.00 72 1016.3
20260505081916 54 0.0 0.0 0.00 0.00 0.00 72 1016.2
20260505080916 54 293 0.9 3.5 0.00 0.00 0.00 73 1016.2
20260505075916 54 293 1.7 5.2 0.00 0.00 0.00 75 1016.3
20260505074936 54 293 0.9 2.6 0.00 0.00 0.00 76 1016.3
20260505073916 55 293 0.9 2.6 0.00 0.00 0.00 77 1016.2
20260505072916 55 0.0 0.9 0.00 0.00 0.00 77 1016.2
20260505071916 55 315 1.7 3.5 0.00 0.00 0.00 77 1016.2
20260505070936 55 0.0 0.0 0.00 0.00 0.00 78 1016.1
20260505065916 55 0.0 0.9 0.00 0.00 0.00 78 1016.0
20260505064937 55 0.0 1.7 0.00 0.00 0.00 78 1016.1
20260505063916 56 0.0 0.0 0.00 0.00 0.00 78 1016.0
20260505062916 56 293 0.9 1.7 0.00 0.00 0.00 78 1015.9
20260505061916 56 293 0.9 2.6 0.00 0.00 0.00 77 1015.8
20260505060917 56 0.0 1.7 0.00 0.00 0.00 77 1015.7
20260505055916 56 0.0 0.9 0.00 0.00 0.00 76 1015.8
20260505054916 56 0.0 1.7 0.00 0.00 0.00 76 1015.9
20260505053916 57 293 0.9 2.6 0.00 0.00 0.00 75 1015.9
20260505052916 57 315 0.9 2.6 0.00 0.00 0.00 75 1016.1
20260505051916 57 315 0.9 0.9 0.00 0.00 0.00 75 1016.2
20260505050916 57 315 0.9 1.7 0.00 0.00 0.00 74 1016.4
20260505040916 58 293 1.7 4.3 0.00 0.00 0.00 70 1015.8
20260505035916 58 0.0 0.9 0.00 0.00 0.00 68 1015.4
20260505034916 58 293 1.7 2.6 0.00 0.00 0.00 67 1015.4
20260505033916 59 293 1.7 2.6 0.00 0.00 0.00 66 1015.2
20260505032917 59 270 0.9 2.6 0.00 0.00 0.00 65 1014.9
20260505031916 59 315 0.9 1.7 0.00 0.00 0.00 64 1014.9
20260505030916 60 315 1.7 1.7 0.00 0.00 0.00 63 1014.8
20260505025916 60 315 0.9 1.7 0.00 0.00 0.00 62 1014.9
20260505024936 60 315 0.9 2.6 0.00 0.00 0.00 62 1014.8
20260505023936 60 338 1.7 2.6 0.00 0.00 0.00 61 1014.8
20260505022916 60 315 0.9 1.7 0.00 0.00 0.00 61 1014.9
20260505021916 61 270 0.9 1.7 0.00 0.00 0.00 60 1014.6
20260505020916 61 293 1.7 3.5 0.00 0.00 0.00 60 1014.8
20260505015916 61 338 2.6 5.2 0.00 0.00 0.00 59 1014.6
20260505014916 62 270 0.9 5.2 0.00 0.00 0.00 59 1014.7
20260505013916 63 315 2.6 3.5 0.00 0.00 0.00 59 1014.7
20260505012916 63 23 0.9 3.5 0.00 0.00 0.00 59 1014.8
20260505011916 63 315 2.6 4.3 0.00 0.00 0.00 59 1014.8
20260505010916 64 270 1.7 2.6 0.00 0.00 0.00 60 1014.9
20260505005916 64 338 1.7 2.6 0.00 0.00 0.00 60 1015.0
20260505004916 64 293 2.6 5.2 0.00 0.00 0.00 61 1015.1
20260505003916 64 293 1.7 4.3 0.00 0.00 0.00 62 1015.1
20260505002915 63 293 0.9 2.6 0.00 0.00 0.00 64 1015.1
20260505001936 62 0.0 0.0 0.00 0.00 0.00 65 1015.1
20260505000915 62 248 0.9 1.7 0.00 0.00 0.00 64 1015.0
20260504235915 62 248 0.9 1.7 0.00 0.00 0.00 64 1015.1
20260504234916 62 225 0.9 2.6 0.00 0.00 0.00 63 1015.1